Wind_Speed
9 9 9 9 9 8 7 7 7 7 6 6 5 5 4 3 3 3 3 3 3 3 3 3 3 4 4 4 5 6 6 5 5 5 6 6 6 5 5 5 4 4 4
9 9 9 8 8 8 8 8 7 7 6 6 5 5 4 3 3 3 2 3 3 3 2 2 2 3 3 4 4 4 5 5 5 5 5 5 5 4 5 4 4 4 4
9 9 8 8 8 8 8 7 7 7 6 5 5 4 3 3 3 3 2 2 2 2 1 1 1 2 3 4 3 4 5 5 5 4 4 5 4 4 4 4 4 4 4
10 10 9 8 8 8 8 7 7 7 6 5 5 4 3 3 2 2 2 1 1 0 0 0 1 2 2 3 3 4 4 5 4 4 4 4 3 3 3 3 3 4 4
10 9 8 8 8 8 8 7 6 6 6 5 4 4 3 2 2 2 1 1 0 0 1 1 1 1 2 3 3 4 4 4 4 4 4 4 3 3 3 3 3 3 3
10 9 9 9 8 7 7 7 6 5 5 5 4 4 3 2 2 1 1 1 2 2 1 1 1 1 2 3 3 3 3 4 4 4 4 3 3 4 4 3 4 3 3
10 9 9 9 9 8 7 7 6 6 5 4 4 4 3 3 2 2 1 1 2 2 1 0 1 1 1 2 2 3 3 3 4 4 4 4 4 4 4 4 4 4 4
10 10 9 9 9 8 8 7 6 6 5 4 3 3 3 2 1 1 1 1 2 2 1 1 1 0 1 2 2 3 2 3 3 3 3 4 4 4 4 4 3 3 4
10 10 10 9 8 8 8 8 7 5 5 5 4 4 3 2 2 1 2 2 2 2 1 1 1 1 1 2 2 3 3 3 3 3 3 4 4 4 4 4 4 3 3
10 9 9 8 8 8 8 7 6 5 5 5 5 4 4 3 3 3 3 3 3 2 2 1 0 1 1 2 2 3 3 3 3 4 4 4 4 4 4 4 5 4 4
9 9 9 8 7 7 7 7 7 6 6 5 5 5 4 4 4 4 4 3 3 2 3 2 1 2 1 2 2 3 3 3 3 4 4 4 5 4 4 5 6 6 5
9 9 9 9 8 6 7 7 6 6 5 5 5 5 5 5 5 4 4 5 4 4 3 2 2 2 1 1 2 4 4 4 4 4 4 4 5 5 5 5 6 6 6
10 9 9 8 8 7 7 6 6 6 5 5 5 5 4 4 4 5 5 4 3 3 3 3 3 3 3 2 3 4 5 5 5 5 5 5 5 6 5 5 6 7 7
10 10 9 8 8 8 7 7 7 6 5 5 5 5 5 4 4 4 5 4 4 4 4 4 3 3 3 4 5 5 5 6 6 6 7 6 7 7 7 6 7 7 8
10 10 9 9 8 8 7 7 7 7 6 6 5 5 5 5 4 4 4 4 4 4 4 3 3 4 3 3 5 6 6 7 8 8 7 8 8 8 8 8 8 8 9
10 10 9 9 8 7 7 7 8 8 7 6 5 6 6 5 5 5 5 5 4 3 3 4 4 4 4 4 5 7 7 7 8 8 8 8 8 9 9 9 9 9 10
10 9 9 8 8 8 7 7 8 7 7 7 6 6 6 5 5 6 5 5 4 4 4 4 4 5 5 6 7 7 8 8 8 7 8 8 8 9 10 10 10 11 10
9 9 9 8 8 8 8 8 8 8 7 7 7 7 7 6 6 6 6 5 5 5 5 5 5 6 6 6 7 8 8 9 9 8 8 8 9 9 10 11 11 12 12
9 9 9 8 8 8 8 8 8 7 7 8 8 8 8 7 6 7 6 6 6 6 7 7 7 7 7 7 7 8 8 8 9 9 9 9 9 9 10 11 12 12 12
10 9 9 9 8 8 8 8 8 8 8 8 8 8 8 8 8 8 7 7 7 7 8 8 8 8 8 8 7 8 8 8 9 10 10 10 11 11 11 11 12 12 12
10 9 9 9 8 8 8 8 8 8 9 9 9 9 9 8 9 8 7 8 8 9 9 9 9 9 9 8 8 9 8 9 10 10 11 12 12 12 12 12 12 13 13
9 9 9 8 8 8 8 8 8 9 9 10 10 10 9 9 10 9 8 9 9 9 10 10 10 10 10 10 9 8 8 9 10 10 11 12 12 12 13 13 13 14 14
10 9 9 9 9 9 9 9 10 10 10 10 10 11 11 11 11 10 10 10 10 10 11 11 11 10 11 11 11 10 9 9 10 11 11 12 12 12 13 13 14 14 15
10 10 10 10 10 9 9 10 10 11 11 11 11 11 11 11 11 11 10 10 10 10 11 11 11 11 10 11 11 11 11 11 11 12 13 13 12 12 13 14 15 16 15
11 10 10 10 10 10 10 10 11 11 12 12 12 12 12 12 12 12 11 11 11 11 11 11 11 11 11 12 12 12 12 12 13 14 14 14 14 14 13 14 14 14 14
12 11 12 11 11 11 11 11 12 12 12 12 13 13 13 12 12 12 13 12 13 13 13 13 13 13 13 13 13 14 14 14 15 15 14 15 15 15 15 15 15 15 16
Wind_Direction
63 62 65 68 67 67 76 90 96 102 106 110 116 123 120 112 107 119 123 125 109 104 108 116 129 132 128 134 130 130 132 139 146 153 149 149 152 151 149 154 159 161 157
64 69 68 66 66 66 77 87 94 102 104 106 108 110 108 106 104 110 105 95 101 96 103 119 123 138 141 147 139 137 138 138 152 155 160 158 153 154 150 147 150 149 149
65 68 67 66 66 65 76 85 93 100 98 98 102 104 99 100 99 100 100 86 99 105 100 115 138 163 158 166 156 149 146 146 147 157 164 163 163 159 158 161 152 147 148
69 68 67 66 61 62 73 79 90 98 98 97 100 99 97 104 103 93 99 79 100 132 174 171 173 180 172 177 169 158 148 147 155 165 164 162 168 168 165 170 159 156 159
67 68 65 62 60 60 70 80 85 93 99 97 99 101 103 106 110 99 93 48 343 280 263 199 166 171 183 174 163 163 162 163 164 168 162 163 175 183 184 178 171 169 177
62 64 65 63 56 55 70 81 82 87 98 91 91 95 100 102 102 98 54 20 354 337 269 192 157 200 196 171 166 173 177 180 177 180 171 173 184 186 188 188 185 190 193
60 60 59 59 55 54 64 76 82 86 91 90 90 83 81 88 73 52 34 44 26 9 343 200 194 164 189 196 195 192 184 196 190 185 179 185 187 184 190 196 202 210 210
58 55 56 55 54 53 58 62 74 77 72 79 74 70 68 62 34 18 335 9 9 7 349 284 257 257 216 204 209 202 200 198 183 178 187 198 198 196 205 209 203 204 207
58 55 54 53 53 53 57 56 58 64 64 59 58 67 72 51 32 19 357 351 350 4 5 298 270 243 227 206 195 181 185 189 191 197 204 199 206 214 214 215 220 216 215
59 56 54 55 54 53 53 53 53 53 55 49 47 54 47 35 29 20 12 354 351 4 8 348 265 252 239 223 212 201 195 195 199 208 219 216 217 221 225 233 236 235 234
56 54 51 50 51 52 52 47 50 49 50 44 42 42 35 27 14 10 10 358 357 5 9 355 292 283 251 236 224 224 216 211 211 208 222 230 234 235 240 245 241 243 244
56 55 52 48 47 45 46 45 48 43 41 37 35 26 21 21 16 17 9 3 350 352 352 340 311 302 279 257 229 230 235 234 223 223 233 235 241 247 254 251 247 248 249
53 49 48 46 47 44 42 41 39 30 29 23 13 14 10 5 11 13 3 356 345 343 336 329 306 294 286 269 249 247 247 245 246 253 243 247 253 258 257 253 252 254 254
46 43 42 41 43 43 39 35 30 24 28 24 10 3 0 1 3 0 1 357 350 334 325 321 309 303 288 267 265 270 266 260 258 263 256 259 262 263 257 253 253 256 256
39 36 39 42 38 36 34 31 25 19 21 18 7 1 354 350 348 345 350 355 340 334 335 329 311 300 302 285 280 282 276 268 269 273 267 266 263 260 258 256 259 257 256
32 32 36 38 33 31 28 28 25 20 21 13 4 357 355 352 358 356 1 359 351 341 329 322 310 301 303 287 279 279 279 273 274 275 272 273 269 263 261 260 262 261 259
26 28 30 31 29 28 26 23 13 13 10 6 1 359 2 357 347 343 348 350 343 336 326 320 308 298 298 290 286 281 281 279 279 273 272 274 271 266 264 263 266 267 264
19 20 22 22 22 19 16 13 8 8 4 357 353 354 355 352 348 344 342 334 329 327 320 312 303 299 298 296 287 286 288 280 276 273 273 271 270 268 264 262 265 266 266
12 13 13 12 12 12 7 5 6 4 358 354 349 349 348 345 343 338 333 327 319 317 316 312 305 301 299 297 295 291 291 285 274 268 267 268 269 267 265 262 262 264 264
5 4 3 3 0 1 360 358 360 357 356 351 344 341 341 340 335 328 323 320 315 311 309 307 305 302 299 294 291 291 289 286 277 269 265 267 268 267 264 261 261 263 262
359 359 358 359 355 351 351 352 350 351 352 350 343 339 336 332 331 327 320 317 315 312 307 303 301 301 297 294 289 286 286 281 277 271 269 271 274 271 266 263 262 261 262
352 353 354 354 353 348 346 345 342 342 341 340 340 340 336 332 330 325 319 314 313 310 306 302 299 298 297 295 289 288 287 285 285 283 280 279 278 272 266 263 262 260 262
349 347 346 348 348 348 345 339 336 335 333 332 335 335 333 329 328 321 319 311 309 308 305 302 300 299 299 294 289 288 286 286 287 286 286 286 283 278 270 267 266 265 261
344 343 341 343 344 341 338 335 331 330 329 326 327 327 328 326 323 317 316 311 308 308 307 302 298 299 300 299 294 291 286 282 284 286 287 285 284 278 274 272 272 268 263
334 336 336 336 338 337 333 331 327 325 325 325 323 322 322 323 322 320 316 313 311 309 307 302 298 296 297 295 295 295 291 290 290 288 286 284 282 278 276 274 274 275 269
332 330 328 326 327 327 326 326 325 323 323 321 319 320 320 319 320 321 318 314 312 309 306 303 300 297 298 297 294 294 293 292 292 290 285 280 278 277 275 274 276 276 275
Height
5883 5882 5881 5881 5880 5880 5879 5879 5879 5880 5881 5882 5882 5883 5883 5883 5883 5883 5883 5883 5883 5883 5883 5883 5883 5883 5883 5883 5882 5882 5882 5882 5882 5883 5883 5883 5883 5883 5884 5884 5884 5885 5885
5884 5883 5883 5882 5882 5881 5881 5881 5881 5881 5882 5882 5883 5884 5884 5884 5884 5884 5884 5884 5884 5884 5883 5883 5883 5883 5883 5883 5883 5883 5883 5883 5883 5883 5883 5883 5884 5884 5884 5884 5884 5884 5885
5885 5885 5884 5884 5884 5883 5883 5882 5882 5883 5883 5883 5884 5884 5884 5884 5884 5884 5884 5884 5884 5884 5884 5883 5883 5883 5883 5883 5883 5883 5883 5883 5883 5883 5883 5883 5884 5884 5884 5884 5884 5884 5884
5887 5886 5886 5886 5885 5885 5884 5884 5884 5884 5884 5884 5885 5885 5885 5885 5885 5885 5885 5884 5884 5884 5883 5883 5883 5883 5883 5883 5883 5883 5883 5883 5883 5883 5883 5884 5884 5884 5884 5884 5884 5884 5884
5888 5888 5888 5887 5887 5886 5886 5885 5885 5885 5885 5886 5886 5885 5885 5885 5885 5885 5885 5885 5884 5884 5883 5883 5883 5883 5883 5883 5883 5883 5883 5883 5883 5883 5883 5883 5884 5884 5884 5884 5884 5884 5884
5890 5889 5889 5888 5888 5887 5887 5887 5886 5886 5886 5886 5886 5886 5886 5886 5886 5885 5885 5885 5884 5884 5883 5883 5883 5883 5883 5883 5883 5883 5883 5883 5883 5883 5883 5883 5883 5884 5884 5884 5884 5884 5884
5892 5891 5890 5890 5889 5889 5888 5888 5887 5887 5887 5887 5887 5886 5886 5886 5886 5885 5885 5885 5884 5884 5883 5883 5883 5883 5883 5883 5883 5883 5882 5882 5882 5883 5883 5883 5883 5883 5883 5883 5883 5883 5884
5893 5892 5892 5891 5891 5890 5889 5889 5888 5888 5888 5887 5887 5887 5887 5886 5886 5885 5885 5885 5884 5884 5883 5883 5883 5883 5883 5882 5882 5882 5882 5882 5882 5882 5882 5882 5883 5883 5883 5883 5883 5883 5883
5894 5894 5893 5892 5892 5891 5891 5890 5889 5889 5889 5888 5888 5887 5887 5886 5886 5885 5885 5885 5884 5883 5883 5883 5883 5882 5882 5882 5882 5881 5881 5881 5882 5882 5882 5882 5882 5882 5882 5882 5882 5882 5882
5895 5895 5894 5894 5893 5892 5892 5891 5891 5890 5889 5889 5888 5887 5887 5886 5886 5885 5885 5884 5884 5883 5883 5882 5882 5882 5881 5881 5881 5881 5881 5881 5881 5881 5881 5881 5881 5881 5881 5882 5882 5882 5881
5896 5896 5895 5894 5894 5893 5892 5892 5891 5891 5890 5890 5889 5888 5887 5887 5886 5885 5884 5884 5883 5883 5882 5882 5881 5881 5881 5881 5881 5880 5880 5880 5880 5880 5880 5880 5880 5880 5880 5880 5880 5881 5880
5898 5897 5896 5895 5894 5893 5893 5893 5892 5891 5891 5890 5889 5889 5888 5887 5886 5885 5884 5884 5883 5882 5882 5881 5881 5880 5880 5880 5880 5880 5879 5879 5879 5879 5879 5879 5879 5879 5879 5879 5879 5879 5879
5899 5898 5897 5896 5895 5895 5894 5893 5892 5891 5891 5890 5889 5889 5888 5887 5886 5885 5884 5883 5882 5882 5881 5881 5880 5879 5879 5879 5879 5879 5878 5878 5878 5878 5878 5878 5877 5877 5877 5877 5877 5877 5877
5900 5899 5898 5897 5896 5895 5894 5893 5892 5892 5891 5890 5889 5888 5887 5886 5886 5885 5884 5883 5882 5881 5880 5880 5880 5879 5879 5879 5878 5878 5877 5877 5877 5877 5876 5876 5876 5876 5876 5875 5876 5876 5876
5901 5900 5899 5898 5897 5896 5895 5894 5893 5892 5891 5890 5889 5888 5887 5886 5885 5884 5883 5882 5881 5881 5880 5880 5879 5879 5878 5877 5877 5877 5876 5876 5875 5875 5874 5874 5874 5874 5874 5874 5874 5874 5873
5902 5901 5899 5898 5897 5896 5895 5894 5893 5892 5891 5890 5889 5887 5886 5885 5885 5884 5883 5881 5880 5880 5879 5879 5878 5877 5877 5876 5876 5875 5874 5874 5873 5872 5872 5872 5872 5872 5872 5872 5871 5871 5871
5902 5901 5900 5899 5897 5896 5895 5894 5893 5892 5891 5890 5888 5887 5885 5884 5884 5883 5882 5881 5880 5879 5878 5877 5877 5876 5875 5875 5874 5873 5872 5872 5871 5871 5870 5869 5869 5869 5869 5869 5868 5868 5868
5903 5901 5900 5898 5897 5896 5895 5893 5892 5891 5890 5889 5888 5886 5885 5884 5883 5882 5881 5879 5878 5877 5877 5876 5875 5874 5874 5873 5872 5871 5870 5869 5869 5868 5868 5867 5867 5866 5866 5866 5866 5865 5865
5903 5901 5900 5898 5897 5896 5894 5893 5892 5891 5889 5888 5887 5885 5884 5883 5881 5880 5879 5878 5877 5876 5875 5874 5873 5873 5872 5871 5869 5868 5868 5867 5866 5866 5865 5864 5864 5864 5863 5863 5863 5862 5862
5902 5901 5899 5898 5896 5895 5894 5892 5891 5890 5889 5887 5886 5884 5883 5882 5880 5879 5877 5876 5875 5874 5873 5872 5871 5870 5869 5868 5867 5866 5865 5865 5864 5863 5862 5862 5861 5860 5860 5859 5859 5859 5859
5902 5900 5899 5897 5896 5895 5893 5892 5890 5889 5887 5886 5885 5883 5882 5880 5878 5877 5875 5874 5873 5872 5871 5870 5869 5868 5867 5866 5865 5864 5863 5862 5861 5860 5859 5859 5858 5857 5856 5856 5856 5855 5855
5901 5899 5898 5897 5895 5894 5892 5891 5889 5888 5886 5885 5883 5882 5880 5878 5876 5875 5873 5872 5871 5870 5868 5867 5866 5865 5864 5863 5862 5861 5860 5860 5858 5857 5856 5856 5855 5854 5853 5852 5852 5851 5851
5900 5899 5897 5896 5894 5893 5891 5890 5888 5886 5885 5883 5881 5880 5878 5876 5874 5873 5871 5870 5868 5867 5866 5864 5863 5862 5861 5860 5859 5858 5857 5856 5855 5855 5853 5852 5851 5850 5849 5848 5848 5847 5847
5899 5897 5896 5894 5893 5891 5890 5888 5887 5885 5883 5881 5879 5878 5876 5874 5872 5870 5869 5867 5866 5864 5863 5861 5860 5859 5858 5856 5855 5854 5854 5853 5852 5851 5850 5849 5848 5847 5846 5845 5844 5843 5843
5897 5896 5894 5893 5891 5890 5888 5886 5885 5883 5881 5879 5877 5876 5874 5872 5870 5868 5866 5864 5863 5861 5860 5858 5857 5856 5855 5854 5852 5851 5850 5849 5848 5847 5846 5845 5844 5843 5842 5841 5840 5840 5839
5895 5894 5892 5891 5889 5888 5886 5884 5882 5881 5879 5877 5875 5873 5871 5869 5867 5865 5863 5861 5860 5858 5857 5855 5854 5852 5851 5850 5849 5847 5846 5845 5844 5843 5842 5841 5840 5839 5838 5837 5836 5836 5835